| time (UTC) | temp F | wind direction | speed MPH | gust MPH | rain 1hr in | rain 24hr in | rain mn in | humidity % | barometer mb |
| 20260502151851 | 46 | 18 | 6.0 | 16.0 | 0.00 | 0.00 | 0.00 | 58 | 1014.6 |
| 20260502151328 | 46 | 355 | 5.0 | 11.0 | 0.00 | 0.00 | 0.00 | 60 | 1014.6 |
| 20260502150901 | 46 | 2 | 3.0 | 11.0 | 0.00 | 0.00 | 0.00 | 60 | 1014.7 |
| 20260502130404 | 39 | 353 | 3.0 | 7.0 | 0.00 | 0.00 | 0.00 | 81 | 1014.8 |
| 20260502123328 | 38 | 359 | 3.0 | 5.0 | 0.00 | 0.00 | 0.00 | 83 | 1014.6 |
| 20260502122900 | 38 | 13 | 2.0 | 5.0 | 0.00 | 0.00 | 0.00 | 84 | 1014.5 |
| 20260502122353 | 38 | 6 | 3.0 | 6.0 | 0.00 | 0.00 | 0.00 | 85 | 1014.5 |
| 20260502121829 | 37 | 343 | 3.0 | 6.0 | 0.00 | 0.00 | 0.00 | 85 | 1014.6 |
| 20260502121404 | 37 | 1 | 1.0 | 5.0 | 0.00 | 0.00 | 0.00 | 86 | 1014.6 |
| 20260502120331 | 37 | 23 | 2.0 | 4.0 | 0.00 | 0.00 | 0.00 | 88 | 1014.5 |
| 20260502115903 | 36 | 352 | 1.0 | 5.0 | 0.00 | 0.00 | 0.00 | 89 | 1014.4 |
| 20260502114831 | 36 | 356 | 2.0 | 4.0 | 0.00 | 0.00 | 0.00 | 90 | 1014.5 |
| 20260502114405 | 36 | 336 | 1.0 | 4.0 | 0.00 | 0.00 | 0.00 | 91 | 1014.5 |
| 20260502113857 | 36 | 1 | 0.0 | 0.0 | 0.00 | 0.00 | 0.00 | 92 | 1014.5 |
| 20260502113335 | 35 | 1 | 0.0 | 0.0 | 0.00 | 0.00 | 0.00 | 93 | 1014.4 |
| 20260502112826 | 35 | 2 | 0.0 | 2.0 | 0.00 | 0.00 | 0.00 | 93 | 1014.5 |
| 20260502112400 | 34 | 15 | 1.0 | 2.0 | 0.00 | 0.00 | 0.00 | 93 | 1014.4 |
| 20260502111328 | 34 | 15 | 0.0 | 0.0 | 0.00 | 0.00 | 0.00 | 92 | 1014.4 |
| 20260502110901 | 34 | 15 | 0.0 | 0.0 | 0.00 | 0.00 | 0.00 | 92 | 1014.4 |
| 20260502110354 | 34 | 15 | 0.0 | 0.0 | 0.00 | 0.00 | 0.00 | 92 | 1014.2 |
| 20260502105403 | 34 | 15 | 0.0 | 0.0 | 0.00 | 0.00 | 0.00 | 91 | 1014.2 |
| 20260502104356 | 34 | 15 | 0.0 | 3.0 | 0.00 | 0.00 | 0.00 | 91 | 1014.0 |
| 20260502103848 | 34 | 15 | 1.0 | 3.0 | 0.00 | 0.00 | 0.00 | 91 | 1014.0 |
| 20260502103342 | 35 | 15 | 1.0 | 3.0 | 0.00 | 0.00 | 0.00 | 91 | 1014.1 |
| 20260502102831 | 35 | 345 | 1.0 | 3.0 | 0.00 | 0.00 | 0.00 | 90 | 1014.2 |
| 20260502102405 | 35 | 345 | 2.0 | 3.0 | 0.00 | 0.00 | 0.00 | 90 | 1014.3 |
| 20260502101858 | 35 | 345 | 1.0 | 2.0 | 0.00 | 0.00 | 0.00 | 90 | 1014.4 |
| 20260502101335 | 35 | 345 | 0.0 | 1.0 | 0.00 | 0.00 | 0.00 | 90 | 1014.4 |
| 20260502100343 | 35 | 356 | 2.0 | 4.0 | 0.00 | 0.00 | 0.00 | 90 | 1014.2 |
| 20260502091400 | 36 | 4 | 2.0 | 4.0 | 0.00 | 0.00 | 0.00 | 85 | 1014.6 |
| 20260502090853 | 36 | 359 | 2.0 | 5.0 | 0.00 | 0.00 | 0.00 | 85 | 1014.5 |
| 20260502070843 | 39 | 13 | 3.0 | 8.0 | 0.00 | 0.00 | 0.00 | 77 | 1014.3 |
| 20260502065852 | 40 | 359 | 3.0 | 5.0 | 0.00 | 0.00 | 0.00 | 76 | 1014.4 |
| 20260502064819 | 40 | 4 | 0.0 | 3.0 | 0.00 | 0.00 | 0.00 | 76 | 1014.5 |
| 20260502063848 | 40 | 15 | 1.0 | 4.0 | 0.00 | 0.00 | 0.00 | 76 | 1014.5 |
| 20260502063341 | 40 | 1 | 1.0 | 3.0 | 0.00 | 0.00 | 0.00 | 76 | 1014.5 |
| 20260502062815 | 40 | 359 | 2.0 | 5.0 | 0.00 | 0.00 | 0.00 | 75 | 1014.5 |
| 20260502062348 | 40 | 6 | 3.0 | 4.0 | 0.00 | 0.00 | 0.00 | 75 | 1014.7 |
| 20260502061837 | 40 | 1 | 2.0 | 4.0 | 0.00 | 0.00 | 0.00 | 75 | 1014.8 |
| 20260502061330 | 40 | 351 | 2.0 | 4.0 | 0.00 | 0.00 | 0.00 | 75 | 1014.9 |
| 20260502060823 | 40 | 305 | 1.0 | 7.0 | 0.00 | 0.00 | 0.00 | 76 | 1014.9 |
| 20260502060316 | 40 | 354 | 1.0 | 7.0 | 0.00 | 0.00 | 0.00 | 75 | 1014.8 |
| 20260502055828 | 40 | 23 | 2.0 | 7.0 | 0.00 | 0.00 | 0.00 | 75 | 1014.8 |
| 20260502055321 | 41 | 297 | 2.0 | 10.0 | 0.00 | 0.00 | 0.00 | 75 | 1014.8 |
| 20260502054818 | 41 | 360 | 3.0 | 8.0 | 0.00 | 0.00 | 0.00 | 74 | 1014.7 |
| 20260502054331 | 41 | 1 | 3.0 | 8.0 | 0.00 | 0.00 | 0.00 | 74 | 1014.6 |
| 20260502053823 | 41 | 356 | 3.0 | 8.0 | 0.00 | 0.00 | 0.00 | 75 | 1014.7 |
| 20260502053316 | 41 | 360 | 3.0 | 7.0 | 0.00 | 0.00 | 0.00 | 78 | 1014.8 |
| 20260502052830 | 41 | 20 | 2.0 | 7.0 | 0.00 | 0.00 | 0.00 | 78 | 1014.9 |
| 20260502052322 | 41 | 349 | 3.0 | 7.0 | 0.00 | 0.00 | 0.00 | 76 | 1014.8 |
| 20260502051815 | 41 | 27 | 4.0 | 12.0 | 0.00 | 0.00 | 0.00 | 76 | 1014.9 |
| 20260502051327 | 41 | 347 | 3.0 | 12.0 | 0.00 | 0.00 | 0.00 | 76 | 1014.8 |
| 20260502050824 | 42 | 354 | 2.0 | 10.0 | 0.00 | 0.00 | 0.00 | 78 | 1014.8 |
| 20260502045832 | 42 | 11 | 3.0 | 8.0 | 0.00 | 0.00 | 0.00 | 82 | 1014.9 |
| 20260502045325 | 42 | 23 | 3.0 | 11.0 | 0.00 | 0.00 | 0.00 | 81 | 1015.0 |
| 20260502044312 | 42 | 1 | 3.0 | 9.0 | 0.00 | 0.00 | 0.00 | 83 | 1015.0 |
| 20260502042814 | 43 | 352 | 3.0 | 8.0 | 0.00 | 0.00 | 0.00 | 84 | 1014.9 |
| 20260502042327 | 43 | 332 | 4.0 | 8.0 | 0.00 | 0.00 | 0.00 | 84 | 1014.9 |
| 20260502041824 | 43 | 2 | 3.0 | 8.0 | 0.00 | 0.00 | 0.00 | 84 | 1014.9 |
| 20260502040812 | 43 | 357 | 4.0 | 11.0 | 0.00 | 0.00 | 0.00 | 83 | 1014.8 |
| 20260502040325 | 43 | 25 | 4.0 | 11.0 | 0.00 | 0.00 | 0.00 | 83 | 1014.8 |
| 20260502035838 | 43 | 359 | 2.0 | 9.0 | 0.00 | 0.00 | 0.00 | 84 | 1014.8 |
| 20260502035430 | 44 | 31 | 4.0 | 9.0 | 0.00 | 0.00 | 0.00 | 83 | 1014.9 |
| 20260502034839 | 44 | 359 | 2.0 | 4.0 | 0.00 | 0.00 | 0.00 | 83 | 1014.9 |
| 20260502034331 | 44 | 3 | 1.0 | 7.0 | 0.00 | 0.00 | 0.00 | 84 | 1014.8 |
| 20260502033905 | 44 | 360 | 3.0 | 7.0 | 0.00 | 0.00 | 0.00 | 83 | 1014.8 |
| 20260502033358 | 44 | 15 | 3.0 | 8.0 | 0.00 | 0.00 | 0.00 | 82 | 1014.9 |
| 20260502032835 | 44 | 20 | 4.0 | 8.0 | 0.00 | 0.00 | 0.00 | 82 | 1014.9 |
| 20260502032328 | 44 | 13 | 3.0 | 6.0 | 0.00 | 0.00 | 0.00 | 81 | 1015.0 |
| 20260502031822 | 44 | 2 | 3.0 | 6.0 | 0.00 | 0.00 | 0.00 | 82 | 1015.0 |
| 20260502031314 | 44 | 1 | 2.0 | 5.0 | 0.00 | 0.00 | 0.00 | 81 | 1015.0 |
| 20260502030342 | 44 | 12 | 3.0 | 10.0 | 0.00 | 0.00 | 0.00 | 81 | 1015.0 |
| 20260502025835 | 44 | 15 | 4.0 | 6.0 | 0.00 | 0.00 | 0.00 | 80 | 1015.0 |
| 20260502025327 | 44 | 106 | 2.0 | 7.0 | 0.00 | 0.00 | 0.00 | 81 | 1015.0 |
| 20260502024901 | 44 | 1 | 4.0 | 10.0 | 0.00 | 0.00 | 0.00 | 80 | 1015.1 |
| 20260502024338 | 44 | 276 | 2.0 | 10.0 | 0.00 | 0.00 | 0.00 | 79 | 1014.9 |
| 20260502023831 | 44 | 10 | 3.0 | 8.0 | 0.00 | 0.00 | 0.00 | 79 | 1014.6 |
| 20260502022838 | 44 | 1 | 3.0 | 10.0 | 0.00 | 0.00 | 0.00 | 79 | 1014.5 |
| 20260502022330 | 44 | 354 | 5.0 | 12.0 | 0.00 | 0.00 | 0.00 | 78 | 1014.4 |
| 20260502020812 | 45 | 14 | 4.0 | 11.0 | 0.00 | 0.00 | 0.00 | 79 | 1014.5 |
| 20260502020406 | 45 | 15 | 4.0 | 13.0 | 0.00 | 0.00 | 0.00 | 79 | 1014.4 |
| 20260502015842 | 45 | 337 | 6.0 | 13.0 | 0.00 | 0.00 | 0.00 | 78 | 1014.3 |
| 20260502014852 | 45 | 2 | 7.0 | 20.0 | 0.00 | 0.00 | 0.00 | 78 | 1013.8 |
| 20260502014345 | 46 | 333 | 6.0 | 20.0 | 0.00 | 0.00 | 0.00 | 78 | 1013.8 |
| 20260502013838 | 46 | 31 | 7.0 | 17.0 | 0.00 | 0.00 | 0.00 | 79 | 1013.7 |
| 20260502013332 | 46 | 360 | 4.0 | 8.0 | 0.00 | 0.00 | 0.00 | 80 | 1013.6 |
| 20260502012823 | 47 | 1 | 4.0 | 8.0 | 0.00 | 0.00 | 0.00 | 80 | 1013.5 |
| 20260502011835 | 47 | 60 | 4.0 | 11.0 | 0.00 | 0.00 | 0.00 | 80 | 1013.5 |
| 20260502010844 | 47 | 353 | 5.0 | 8.0 | 0.00 | 0.00 | 0.00 | 81 | 1013.3 |
| 20260502010338 | 47 | 32 | 3.0 | 7.0 | 0.00 | 0.00 | 0.00 | 81 | 1013.3 |
| 20260502005830 | 47 | 351 | 3.0 | 8.0 | 0.00 | 0.00 | 0.00 | 81 | 1013.2 |
| 20260502005404 | 47 | 360 | 4.0 | 9.0 | 0.00 | 0.00 | 0.00 | 81 | 1013.3 |
| 20260502004857 | 47 | 360 | 5.0 | 10.0 | 0.00 | 0.00 | 0.00 | 81 | 1013.2 |
| 20260502004350 | 47 | 11 | 4.0 | 13.0 | 0.00 | 0.00 | 0.00 | 81 | 1013.0 |
| 20260502003827 | 47 | 3 | 6.0 | 13.0 | 0.00 | 0.00 | 0.00 | 81 | 1013.0 |
| 20260502002832 | 48 | 11 | 5.0 | 16.0 | 0.00 | 0.00 | 0.00 | 80 | 1012.9 |
| 20260502002357 | 48 | 360 | 4.0 | 16.0 | 0.00 | 0.00 | 0.00 | 80 | 1012.8 |
| 20260502001835 | 48 | 39 | 5.0 | 16.0 | 0.00 | 0.00 | 0.00 | 80 | 1012.7 |
| 20260502001329 | 48 | 4 | 6.0 | 13.0 | 0.00 | 0.00 | 0.00 | 79 | 1012.6 |
| 20260502000336 | 48 | 5 | 3.0 | 8.0 | 0.00 | 0.00 | 0.00 | 78 | 1012.2 |
| 20260501235830 | 49 | 356 | 4.0 | 8.0 | 0.00 | 0.00 | 0.00 | 77 | 1012.1 |
| 20260501235403 | 49 | 359 | 4.0 | 8.0 | 0.00 | 0.00 | 0.00 | 76 | 1012.2 |
| 20260501234856 | 49 | 354 | 5.0 | 9.0 | 0.00 | 0.00 | 0.00 | 75 | 1012.1 |
| 20260501234333 | 50 | 27 | 4.0 | 12.0 | 0.00 | 0.00 | 0.00 | 75 | 1011.8 |
| 20260501233328 | 50 | 44 | 5.0 | 16.0 | 0.00 | 0.00 | 0.00 | 72 | 1011.7 |
| 20260501232901 | 51 | 336 | 7.0 | 16.0 | 0.00 | 0.00 | 0.00 | 69 | 1011.8 |
| 20260501232355 | 52 | 93 | 5.0 | 14.0 | 0.00 | 0.00 | 0.00 | 67 | 1011.6 |
| 20260501231404 | 55 | 352 | 7.0 | 20.0 | 0.00 | 0.00 | 0.00 | 59 | 1011.2 |
| 20260501230856 | 56 | 68 | 3.0 | 10.0 | 0.00 | 0.00 | 0.00 | 53 | 1010.9 |
| 20260501230334 | 57 | 359 | 4.0 | 17.0 | 0.00 | 0.00 | 0.00 | 52 | 1011.0 |
| 20260501225906 | 56 | 278 | 2.0 | 17.0 | 0.00 | 0.00 | 0.00 | 53 | 1011.2 |
| 20260501223844 | 58 | 248 | 3.0 | 11.0 | 0.00 | 0.00 | 0.00 | 46 | 1011.0 |
| 20260501223337 | 59 | 313 | 5.0 | 12.0 | 0.00 | 0.00 | 0.00 | 45 | 1011.1 |
| 20260501222827 | 59 | 271 | 3.0 | 10.0 | 0.00 | 0.00 | 0.00 | 46 | 1011.0 |
| 20260501222401 | 59 | 298 | 4.0 | 14.0 | 0.00 | 0.00 | 0.00 | 46 | 1010.9 |
| 20260501221854 | 59 | 289 | 7.0 | 14.0 | 0.00 | 0.00 | 0.00 | 45 | 1011.0 |
| 20260501221331 | 59 | 12 | 6.0 | 15.0 | 0.00 | 0.00 | 0.00 | 44 | 1011.0 |
| 20260501220824 | 59 | 319 | 7.0 | 17.0 | 0.00 | 0.00 | 0.00 | 43 | 1011.0 |
| 20260501215328 | 61 | 271 | 7.0 | 15.0 | 0.00 | 0.00 | 0.00 | 41 | 1010.9 |
| 20260501214820 | 61 | 209 | 8.0 | 14.0 | 0.00 | 0.00 | 0.00 | 40 | 1010.9 |
| 20260501214313 | 61 | 264 | 6.0 | 15.0 | 0.00 | 0.00 | 0.00 | 40 | 1011.0 |
| 20260501213907 | 61 | 267 | 6.0 | 14.0 | 0.00 | 0.00 | 0.00 | 41 | 1011.0 |
| 20260501213359 | 61 | 249 | 6.0 | 14.0 | 0.00 | 0.00 | 0.00 | 43 | 1011.0 |
| 20260501212352 | 60 | 230 | 4.0 | 12.0 | 0.00 | 0.00 | 0.00 | 44 | 1010.8 |
| 20260501211846 | 59 | 255 | 6.0 | 12.0 | 0.00 | 0.00 | 0.00 | 45 | 1011.0 |
| 20260501211338 | 59 | 276 | 7.0 | 17.0 | 0.00 | 0.00 | 0.00 | 42 | 1011.3 |
| 20260501210832 | 61 | 280 | 8.0 | 17.0 | 0.00 | 0.00 | 0.00 | 39 | 1011.1 |
| 20260501205856 | 62 | 6 | 5.0 | 16.0 | 0.00 | 0.00 | 0.00 | 42 | 1011.1 |
| 20260501205349 | 61 | 345 | 4.0 | 12.0 | 0.00 | 0.00 | 0.00 | 43 | 1011.1 |
| 20260501204842 | 60 | 285 | 6.0 | 25.0 | 0.00 | 0.00 | 0.00 | 41 | 1011.3 |
| 20260501204319 | 61 | 269 | 8.0 | 25.0 | 0.00 | 0.00 | 0.00 | 38 | 1011.2 |
| 20260501203853 | 61 | 155 | 5.0 | 19.0 | 0.00 | 0.00 | 0.00 | 39 | 1011.0 |
| 20260501203345 | 62 | 324 | 7.0 | 19.0 | 0.00 | 0.00 | 0.00 | 38 | 1011.1 |
| 20260501202837 | 62 | 290 | 10.0 | 19.0 | 0.00 | 0.00 | 0.00 | 38 | 1011.2 |
| 20260501202328 | 62 | 236 | 9.0 | 19.0 | 0.00 | 0.00 | 0.00 | 37 | 1010.9 |
| 20260501201902 | 61 | 301 | 7.0 | 19.0 | 0.00 | 0.00 | 0.00 | 38 | 1011.1 |
| 20260501201355 | 62 | 293 | 12.0 | 19.0 | 0.00 | 0.00 | 0.00 | 39 | 1011.3 |
| 20260501200402 | 62 | 252 | 10.0 | 18.0 | 0.00 | 0.00 | 0.00 | 35 | 1011.1 |
| 20260501195840 | 62 | 267 | 6.0 | 22.0 | 0.00 | 0.00 | 0.00 | 38 | 1011.3 |
| 20260501194846 | 63 | 228 | 6.0 | 17.0 | 0.00 | 0.00 | 0.00 | 39 | 1011.3 |
| 20260501194340 | 63 | 259 | 8.0 | 17.0 | 0.00 | 0.00 | 0.00 | 37 | 1011.3 |
| 20260501193831 | 63 | 228 | 5.0 | 22.0 | 0.00 | 0.00 | 0.00 | 37 | 1011.3 |
| 20260501193405 | 63 | 359 | 7.0 | 22.0 | 0.00 | 0.00 | 0.00 | 34 | 1011.2 |
| 20260501192858 | 63 | 249 | 6.0 | 13.0 | 0.00 | 0.00 | 0.00 | 35 | 1011.3 |
| 20260501191903 | 63 | 263 | 8.0 | 18.0 | 0.00 | 0.00 | 0.00 | 36 | 1011.4 |
| 20260501191339 | 63 | 183 | 8.0 | 18.0 | 0.00 | 0.00 | 0.00 | 35 | 1011.7 |
| 20260501190832 | 63 | 353 | 6.0 | 13.0 | 0.00 | 0.00 | 0.00 | 35 | 1011.6 |
| 20260501190405 | 62 | 218 | 6.0 | 13.0 | 0.00 | 0.00 | 0.00 | 37 | 1011.7 |
| 20260501185858 | 62 | 234 | 7.0 | 16.0 | 0.00 | 0.00 | 0.00 | 34 | 1011.7 |
| 20260501185352 | 63 | 269 | 8.0 | 16.0 | 0.00 | 0.00 | 0.00 | 41 | 1011.8 |
| 20260501184844 | 63 | 227 | 5.0 | 14.0 | 0.00 | 0.00 | 0.00 | 39 | 1011.8 |
| 20260501183840 | 61 | 2 | 5.0 | 17.0 | 0.00 | 0.00 | 0.00 | 40 | 1011.7 |
| 20260501183316 | 61 | 293 | 10.0 | 17.0 | 0.00 | 0.00 | 0.00 | 40 | 1011.8 |
| 20260501182906 | 62 | 225 | 10.0 | 16.0 | 0.00 | 0.00 | 0.00 | 39 | 1011.8 |
| 20260501181856 | 62 | 247 | 10.0 | 20.0 | 0.00 | 0.00 | 0.00 | 34 | 1011.8 |
| 20260501181349 | 62 | 309 | 7.0 | 14.0 | 0.00 | 0.00 | 0.00 | 38 | 1011.8 |
| 20260501180337 | 61 | 268 | 7.0 | 17.0 | 0.00 | 0.00 | 0.00 | 39 | 1012.1 |
| 20260501175406 | 61 | 297 | 9.0 | 20.0 | 0.00 | 0.00 | 0.00 | 35 | 1012.0 |
| 20260501174858 | 61 | 245 | 11.0 | 18.0 | 0.00 | 0.00 | 0.00 | 33 | 1012.0 |
| 20260501174336 | 61 | 266 | 5.0 | 13.0 | 0.00 | 0.00 | 0.00 | 39 | 1012.1 |
| 20260501173344 | 61 | 271 | 9.0 | 15.0 | 0.00 | 0.00 | 0.00 | 34 | 1012.2 |
| 20260501172837 | 61 | 289 | 6.0 | 13.0 | 0.00 | 0.00 | 0.00 | 38 | 1012.1 |
| 20260501172327 | 60 | 172 | 6.0 | 18.0 | 0.00 | 0.00 | 0.00 | 35 | 1012.2 |
| 20260501171901 | 60 | 245 | 8.0 | 18.0 | 0.00 | 0.00 | 0.00 | 36 | 1012.3 |
| 20260501170830 | 59 | 244 | 5.0 | 19.0 | 0.00 | 0.00 | 0.00 | 39 | 1012.4 |
| 20260501170403 | 59 | 213 | 9.0 | 19.0 | 0.00 | 0.00 | 0.00 | 35 | 1012.3 |
| 20260501165355 | 59 | 259 | 9.0 | 18.0 | 0.00 | 0.00 | 0.00 | 37 | 1012.5 |
| 20260501164847 | 59 | 252 | 7.0 | 13.0 | 0.00 | 0.00 | 0.00 | 41 | 1012.5 |
| 20260501164340 | 59 | 146 | 6.0 | 9.0 | 0.00 | 0.00 | 0.00 | 45 | 1012.5 |
| 20260501162843 | 57 | 199 | 4.0 | 14.0 | 0.00 | 0.00 | 0.00 | 41 | 1012.7 |
| 20260501162333 | 57 | 169 | 4.0 | 14.0 | 0.00 | 0.00 | 0.00 | 42 | 1012.7 |
| 20260501161826 | 57 | 139 | 5.0 | 12.0 | 0.00 | 0.00 | 0.00 | 48 | 1012.8 |
| 20260501161400 | 57 | 104 | 5.0 | 10.0 | 0.00 | 0.00 | 0.00 | 48 | 1012.9 |
| 20260501160836 | 56 | 170 | 4.0 | 12.0 | 0.00 | 0.00 | 0.00 | 51 | 1013.0 |
| 20260501160329 | 56 | 146 | 6.0 | 12.0 | 0.00 | 0.00 | 0.00 | 47 | 1013.2 |
| 20260501155903 | 55 | 188 | 7.0 | 12.0 | 0.00 | 0.00 | 0.00 | 50 | 1013.0 |
| 20260501155356 | 55 | 155 | 6.0 | 11.0 | 0.00 | 0.00 | 0.00 | 51 | 1013.2 |